| time (UTC) | temp F | wind direction | speed MPH | gust MPH | rain 1hr in | rain 24hr in | rain mn in | humidity % | barometer mb |
| 20260504230037 | 55 | 270 | 4.0 | 6.0 | 0.01 | 0.01 | 0.01 | 59 | 1003.0 |
| 20260504225517 | 57 | 247 | 6.0 | 11.0 | 0.00 | 0.00 | 0.00 | 56 | 1003.3 |
| 20260504225016 | 60 | 247 | 9.0 | 14.0 | 0.00 | 0.00 | 0.00 | 50 | 1003.0 |
| 20260504224517 | 60 | 270 | 6.0 | 11.0 | 0.00 | 0.00 | 0.00 | 42 | 1002.7 |
| 20260504224036 | 60 | 270 | 3.0 | 6.0 | 0.00 | 0.00 | 0.00 | 41 | 1002.4 |
| 20260504223516 | 60 | 292 | 3.0 | 7.0 | 0.00 | 0.00 | 0.00 | 41 | 1002.3 |
| 20260504223016 | 61 | 315 | 2.0 | 4.0 | 0.00 | 0.00 | 0.00 | 41 | 1002.0 |
| 20260504222537 | 61 | 0 | 2.0 | 4.0 | 0.00 | 0.00 | 0.00 | 39 | 1002.0 |
| 20260504222016 | 61 | 337 | 4.0 | 8.0 | 0.00 | 0.00 | 0.00 | 39 | 1002.1 |
| 20260504221517 | 62 | 337 | 5.0 | 8.0 | 0.00 | 0.00 | 0.00 | 38 | 1002.0 |
| 20260504221016 | 62 | 0 | 6.0 | 9.0 | 0.00 | 0.00 | 0.00 | 39 | 1001.8 |
| 20260504220537 | 62 | 0 | 5.0 | 9.0 | 0.00 | 0.00 | 0.00 | 39 | 1001.6 |
| 20260504220036 | 63 | 0 | 5.0 | 10.0 | 0.00 | 0.00 | 0.00 | 40 | 1001.3 |
| 20260504215517 | 63 | 0 | 5.0 | 10.0 | 0.00 | 0.00 | 0.00 | 39 | 1001.4 |
| 20260504215016 | 63 | 22 | 3.0 | 6.0 | 0.00 | 0.00 | 0.00 | 40 | 1001.5 |
| 20260504214517 | 62 | 45 | 4.0 | 9.0 | 0.00 | 0.00 | 0.00 | 40 | 1001.7 |
| 20260504214017 | 62 | 45 | 5.0 | 9.0 | 0.00 | 0.00 | 0.00 | 42 | 1001.9 |
| 20260504213516 | 62 | 67 | 5.0 | 11.0 | 0.00 | 0.00 | 0.00 | 43 | 1002.1 |
| 20260504213036 | 62 | 67 | 5.0 | 13.0 | 0.00 | 0.00 | 0.00 | 41 | 1002.3 |
| 20260504212516 | 61 | 67 | 7.0 | 13.0 | 0.00 | 0.00 | 0.00 | 47 | 1002.6 |
| 20260504212016 | 60 | 90 | 6.0 | 11.0 | 0.00 | 0.00 | 0.00 | 47 | 1002.7 |
| 20260504211516 | 59 | 22 | 5.0 | 12.0 | 0.00 | 0.00 | 0.00 | 44 | 1002.9 |
| 20260504211036 | 59 | 0 | 6.0 | 15.0 | 0.00 | 0.00 | 0.00 | 43 | 1003.2 |
| 20260504210517 | 60 | 337 | 8.0 | 15.0 | 0.00 | 0.00 | 0.00 | 46 | 1003.3 |
| 20260504210016 | 61 | 337 | 6.0 | 12.0 | 0.00 | 0.00 | 0.00 | 39 | 1003.2 |
| 20260504205516 | 61 | 315 | 4.0 | 9.0 | 0.00 | 0.00 | 0.00 | 39 | 1002.9 |
| 20260504205016 | 61 | 337 | 3.0 | 8.0 | 0.00 | 0.00 | 0.00 | 40 | 1003.0 |
| 20260504204516 | 62 | 337 | 5.0 | 13.0 | 0.00 | 0.00 | 0.00 | 38 | 1002.8 |
| 20260504204016 | 63 | 337 | 7.0 | 12.0 | 0.00 | 0.00 | 0.00 | 34 | 1002.4 |
| 20260504203516 | 63 | 315 | 5.0 | 12.0 | 0.00 | 0.00 | 0.00 | 33 | 1002.3 |
| 20260504203017 | 63 | 337 | 7.0 | 12.0 | 0.00 | 0.00 | 0.00 | 33 | 1002.0 |
| 20260504202516 | 63 | 337 | 9.0 | 24.0 | 0.00 | 0.00 | 0.00 | 33 | 1001.8 |
| 20260504202016 | 64 | 337 | 12.0 | 23.0 | 0.00 | 0.00 | 0.00 | 32 | 1001.3 |
| 20260504201516 | 65 | 337 | 11.0 | 20.0 | 0.00 | 0.00 | 0.00 | 31 | 1001.4 |
| 20260504201017 | 68 | 315 | 12.0 | 21.0 | 0.00 | 0.00 | 0.00 | 28 | 1001.7 |
| 20260504200516 | 70 | 315 | 7.0 | 14.0 | 0.00 | 0.00 | 0.00 | 24 | 1001.6 |
| 20260504200016 | 71 | 315 | 6.0 | 13.0 | 0.00 | 0.00 | 0.00 | 24 | 1001.7 |
| 20260504195536 | 72 | 337 | 5.0 | 16.0 | 0.00 | 0.00 | 0.00 | 24 | 1001.7 |
| 20260504195016 | 71 | 270 | 6.0 | 14.0 | 0.00 | 0.00 | 0.00 | 25 | 1001.6 |
| 20260504194516 | 72 | 270 | 7.0 | 12.0 | 0.00 | 0.00 | 0.00 | 25 | 1001.6 |
| 20260504194018 | 73 | 270 | 7.0 | 13.0 | 0.00 | 0.00 | 0.00 | 23 | 1001.6 |
| 20260504193516 | 73 | 270 | 7.0 | 13.0 | 0.00 | 0.00 | 0.00 | 25 | 1001.6 |
| 20260504193037 | 73 | 247 | 8.0 | 14.0 | 0.00 | 0.00 | 0.00 | 24 | 1001.6 |
| 20260504192516 | 73 | 270 | 9.0 | 22.0 | 0.00 | 0.00 | 0.00 | 23 | 1001.8 |
| 20260504192016 | 74 | 270 | 11.0 | 22.0 | 0.00 | 0.00 | 0.00 | 23 | 1001.8 |
| 20260504191517 | 73 | 270 | 11.0 | 22.0 | 0.00 | 0.00 | 0.00 | 25 | 1001.9 |
| 20260504191016 | 73 | 247 | 8.0 | 15.0 | 0.00 | 0.00 | 0.00 | 23 | 1001.9 |
| 20260504190516 | 72 | 247 | 8.0 | 14.0 | 0.00 | 0.00 | 0.00 | 24 | 1002.0 |
| 20260504190016 | 72 | 247 | 10.0 | 16.0 | 0.00 | 0.00 | 0.00 | 24 | 1001.8 |
| 20260504185536 | 72 | 247 | 13.0 | 19.0 | 0.00 | 0.00 | 0.00 | 23 | 1002.0 |
| 20260504185016 | 72 | 247 | 12.0 | 17.0 | 0.00 | 0.00 | 0.00 | 23 | 1002.0 |
| 20260504184516 | 72 | 225 | 13.0 | 17.0 | 0.00 | 0.00 | 0.00 | 22 | 1002.0 |
| 20260504184016 | 73 | 225 | 12.0 | 20.0 | 0.00 | 0.00 | 0.00 | 23 | 1002.0 |
| 20260504183516 | 73 | 225 | 13.0 | 18.0 | 0.00 | 0.00 | 0.00 | 23 | 1002.1 |
| 20260504183016 | 72 | 247 | 12.0 | 18.0 | 0.00 | 0.00 | 0.00 | 23 | 1002.2 |
| 20260504182516 | 72 | 225 | 14.0 | 18.0 | 0.00 | 0.00 | 0.00 | 24 | 1002.2 |
| 20260504182016 | 71 | 225 | 13.0 | 20.0 | 0.00 | 0.00 | 0.00 | 25 | 1002.4 |
| 20260504181536 | 71 | 225 | 14.0 | 21.0 | 0.00 | 0.00 | 0.00 | 24 | 1002.4 |
| 20260504181016 | 70 | 247 | 13.0 | 18.0 | 0.00 | 0.00 | 0.00 | 24 | 1002.4 |
| 20260504180516 | 71 | 225 | 12.0 | 21.0 | 0.00 | 0.00 | 0.00 | 24 | 1002.4 |
| 20260504180016 | 70 | 225 | 13.0 | 19.0 | 0.00 | 0.00 | 0.00 | 25 | 1002.5 |
| 20260504175516 | 70 | 225 | 13.0 | 18.0 | 0.00 | 0.00 | 0.00 | 26 | 1002.5 |
| 20260504175137 | 69 | 225 | 11.0 | 16.0 | 0.00 | 0.00 | 0.00 | 26 | 1002.7 |
| 20260504174516 | 69 | 202 | 10.0 | 14.0 | 0.00 | 0.00 | 0.00 | 26 | 1002.9 |
| 20260504174016 | 68 | 180 | 6.0 | 12.0 | 0.00 | 0.00 | 0.00 | 27 | 1003.1 |
| 20260504173516 | 67 | 202 | 3.0 | 7.0 | 0.00 | 0.00 | 0.00 | 28 | 1003.2 |
| 20260504173016 | 67 | 202 | 4.0 | 6.0 | 0.00 | 0.00 | 0.00 | 29 | 1003.1 |
| 20260504172537 | 67 | 180 | 4.0 | 6.0 | 0.00 | 0.00 | 0.00 | 29 | 1003.1 |
| 20260504172017 | 66 | 180 | 6.0 | 11.0 | 0.00 | 0.00 | 0.00 | 29 | 1003.0 |
| 20260504171536 | 66 | 180 | 6.0 | 9.0 | 0.00 | 0.00 | 0.00 | 29 | 1003.1 |
| 20260504171016 | 66 | 180 | 7.0 | 12.0 | 0.00 | 0.00 | 0.00 | 28 | 1003.1 |
| 20260504170536 | 65 | 180 | 7.0 | 11.0 | 0.00 | 0.00 | 0.00 | 28 | 1003.1 |
| 20260504151016 | 65 | 225 | 13.0 | 19.0 | 0.00 | 0.00 | 0.00 | 26 | 1003.4 |
| 20260504150515 | 65 | 225 | 10.0 | 14.0 | 0.00 | 0.00 | 0.00 | 27 | 1003.5 |
| 20260504141017 | 58 | 157 | 3.0 | 4.0 | 0.00 | 0.00 | 0.00 | 32 | 1003.5 |
| 20260504140515 | 58 | 180 | 4.0 | 5.0 | 0.00 | 0.00 | 0.00 | 31 | 1003.4 |
| 20260504130517 | 52 | 202 | 7.0 | 10.0 | 0.00 | 0.00 | 0.00 | 32 | 1003.4 |
| 20260504110517 | 39 | 0.0 | 0.0 | 0.00 | 0.00 | 0.00 | 53 | 1002.8 | |
| 20260504100517 | 39 | 0.0 | 0.0 | 0.00 | 0.00 | 0.00 | 51 | 1003.0 | |
| 20260504081516 | 47 | 247 | 2.0 | 3.0 | 0.00 | 0.00 | 0.00 | 38 | 1004.0 |
| 20260504081017 | 47 | 247 | 1.0 | 2.0 | 0.00 | 0.00 | 0.00 | 38 | 1004.1 |
| 20260504080517 | 47 | 247 | 1.0 | 2.0 | 0.00 | 0.00 | 0.00 | 38 | 1004.3 |
| 20260504050519 | 54 | 292 | 1.0 | 3.0 | 0.00 | 0.00 | 0.00 | 37 | 1005.1 |
| 20260504050018 | 55 | 315 | 1.0 | 3.0 | 0.00 | 0.00 | 0.00 | 36 | 1005.3 |
| 20260504045517 | 56 | 315 | 2.0 | 6.0 | 0.00 | 0.00 | 0.00 | 35 | 1005.3 |
| 20260504045017 | 57 | 292 | 3.0 | 5.0 | 0.00 | 0.00 | 0.00 | 33 | 1005.4 |
| 20260504044537 | 58 | 315 | 3.0 | 7.0 | 0.00 | 0.00 | 0.00 | 30 | 1005.5 |
| 20260504044017 | 59 | 315 | 4.0 | 7.0 | 0.00 | 0.00 | 0.00 | 29 | 1005.3 |
| 20260504043538 | 59 | 292 | 3.0 | 7.0 | 0.00 | 0.00 | 0.00 | 29 | 1005.4 |
| 20260504043017 | 59 | 315 | 4.0 | 8.0 | 0.00 | 0.00 | 0.00 | 28 | 1005.4 |
| 20260504042518 | 60 | 292 | 4.0 | 8.0 | 0.00 | 0.00 | 0.00 | 27 | 1005.4 |
| 20260504042017 | 60 | 270 | 4.0 | 8.0 | 0.00 | 0.00 | 0.00 | 27 | 1005.3 |
| 20260504041515 | 62 | 270 | 6.0 | 10.0 | 0.00 | 0.00 | 0.00 | 27 | 1005.5 |
| 20260504041018 | 62 | 247 | 8.0 | 11.0 | 0.00 | 0.00 | 0.00 | 26 | 1005.1 |
| 20260504040517 | 62 | 247 | 8.0 | 11.0 | 0.00 | 0.00 | 0.00 | 26 | 1005.2 |
| 20260504040017 | 62 | 247 | 7.0 | 10.0 | 0.00 | 0.00 | 0.00 | 26 | 1005.3 |
| 20260504035517 | 62 | 247 | 8.0 | 11.0 | 0.00 | 0.00 | 0.00 | 26 | 1005.3 |
| 20260504035017 | 62 | 247 | 7.0 | 10.0 | 0.00 | 0.00 | 0.00 | 26 | 1005.3 |
| 20260504034538 | 62 | 247 | 7.0 | 11.0 | 0.00 | 0.00 | 0.00 | 27 | 1005.2 |
| 20260504034017 | 61 | 247 | 8.0 | 12.0 | 0.00 | 0.00 | 0.00 | 27 | 1005.3 |
| 20260504033557 | 61 | 247 | 8.0 | 11.0 | 0.00 | 0.00 | 0.00 | 28 | 1005.3 |
| 20260504033017 | 60 | 225 | 6.0 | 10.0 | 0.00 | 0.00 | 0.00 | 29 | 1005.2 |
| 20260504032517 | 59 | 225 | 5.0 | 8.0 | 0.00 | 0.00 | 0.00 | 29 | 1005.1 |
| 20260504032017 | 58 | 225 | 4.0 | 6.0 | 0.00 | 0.00 | 0.00 | 29 | 1005.2 |
| 20260504031537 | 57 | 202 | 2.0 | 5.0 | 0.00 | 0.00 | 0.00 | 30 | 1005.1 |
| 20260504031037 | 59 | 225 | 3.0 | 4.0 | 0.00 | 0.00 | 0.00 | 28 | 1005.2 |
| 20260504030517 | 59 | 225 | 3.0 | 4.0 | 0.00 | 0.00 | 0.00 | 28 | 1005.1 |
| 20260504030017 | 59 | 202 | 3.0 | 4.0 | 0.00 | 0.00 | 0.00 | 28 | 1005.1 |
| 20260504025537 | 61 | 202 | 4.0 | 6.0 | 0.00 | 0.00 | 0.00 | 27 | 1005.1 |
| 20260504025017 | 62 | 225 | 5.0 | 6.0 | 0.00 | 0.00 | 0.00 | 26 | 1005.1 |
| 20260504024517 | 62 | 225 | 5.0 | 7.0 | 0.00 | 0.00 | 0.00 | 26 | 1005.1 |
| 20260504024017 | 62 | 225 | 6.0 | 7.0 | 0.00 | 0.00 | 0.00 | 26 | 1005.0 |
| 20260504023517 | 63 | 225 | 6.0 | 7.0 | 0.00 | 0.00 | 0.00 | 26 | 1004.9 |
| 20260504023017 | 63 | 225 | 6.0 | 8.0 | 0.00 | 0.00 | 0.00 | 26 | 1004.9 |
| 20260504022517 | 63 | 225 | 6.0 | 7.0 | 0.00 | 0.00 | 0.00 | 26 | 1004.9 |
| 20260504022017 | 64 | 225 | 5.0 | 7.0 | 0.00 | 0.00 | 0.00 | 25 | 1004.8 |
| 20260504021517 | 64 | 225 | 6.0 | 8.0 | 0.00 | 0.00 | 0.00 | 25 | 1004.9 |
| 20260504021017 | 64 | 225 | 6.0 | 8.0 | 0.00 | 0.00 | 0.00 | 25 | 1004.9 |
| 20260504020517 | 64 | 225 | 7.0 | 9.0 | 0.00 | 0.00 | 0.00 | 26 | 1004.9 |
| 20260504020018 | 64 | 225 | 6.0 | 8.0 | 0.00 | 0.00 | 0.00 | 26 | 1004.8 |
| 20260504015517 | 64 | 225 | 5.0 | 7.0 | 0.00 | 0.00 | 0.00 | 26 | 1004.7 |
| 20260504015017 | 65 | 225 | 5.0 | 7.0 | 0.00 | 0.00 | 0.00 | 25 | 1004.7 |
| 20260504014517 | 65 | 225 | 5.0 | 8.0 | 0.00 | 0.00 | 0.00 | 25 | 1004.8 |
| 20260504014017 | 66 | 225 | 5.0 | 8.0 | 0.00 | 0.00 | 0.00 | 25 | 1004.7 |
| 20260504013517 | 66 | 225 | 6.0 | 10.0 | 0.00 | 0.00 | 0.00 | 24 | 1004.7 |
| 20260504013017 | 67 | 225 | 6.0 | 9.0 | 0.00 | 0.00 | 0.00 | 24 | 1004.7 |
| 20260504012517 | 67 | 225 | 7.0 | 9.0 | 0.00 | 0.00 | 0.00 | 24 | 1004.6 |
| 20260504012018 | 67 | 225 | 7.0 | 10.0 | 0.00 | 0.00 | 0.00 | 24 | 1004.6 |
| 20260504011517 | 68 | 225 | 7.0 | 12.0 | 0.00 | 0.00 | 0.00 | 23 | 1004.6 |
| 20260504011017 | 68 | 225 | 8.0 | 11.0 | 0.00 | 0.00 | 0.00 | 23 | 1004.6 |
| 20260504010537 | 68 | 225 | 10.0 | 14.0 | 0.00 | 0.00 | 0.00 | 23 | 1004.8 |
| 20260504010017 | 68 | 225 | 11.0 | 14.0 | 0.00 | 0.00 | 0.00 | 23 | 1004.8 |
| 20260504005517 | 68 | 225 | 11.0 | 16.0 | 0.00 | 0.00 | 0.00 | 23 | 1004.7 |
| 20260504005017 | 68 | 225 | 9.0 | 14.0 | 0.00 | 0.00 | 0.00 | 23 | 1004.7 |
| 20260504004517 | 69 | 202 | 9.0 | 12.0 | 0.00 | 0.00 | 0.00 | 22 | 1004.4 |
| 20260504004017 | 69 | 202 | 7.0 | 10.0 | 0.00 | 0.00 | 0.00 | 23 | 1004.3 |
| 20260504003517 | 69 | 202 | 8.0 | 11.0 | 0.00 | 0.00 | 0.00 | 22 | 1004.3 |
| 20260504003017 | 69 | 202 | 9.0 | 12.0 | 0.00 | 0.00 | 0.00 | 22 | 1004.2 |
| 20260504002517 | 69 | 225 | 9.0 | 14.0 | 0.00 | 0.00 | 0.00 | 22 | 1004.4 |
| 20260504002017 | 70 | 225 | 11.0 | 15.0 | 0.00 | 0.00 | 0.00 | 22 | 1004.6 |
| 20260504001517 | 70 | 225 | 9.0 | 14.0 | 0.00 | 0.00 | 0.00 | 22 | 1004.7 |
| 20260504001017 | 70 | 225 | 8.0 | 13.0 | 0.00 | 0.00 | 0.00 | 22 | 1004.7 |
| 20260504000517 | 70 | 202 | 8.0 | 11.0 | 0.00 | 0.00 | 0.00 | 21 | 1004.7 |
| 20260504000017 | 70 | 202 | 7.0 | 10.0 | 0.00 | 0.00 | 0.00 | 20 | 1004.6 |
| 20260503235537 | 70 | 180 | 7.0 | 11.0 | 0.00 | 0.00 | 0.00 | 20 | 1004.6 |
| 20260503235057 | 70 | 180 | 7.0 | 12.0 | 0.00 | 0.00 | 0.00 | 20 | 1004.8 |
| 20260503234517 | 70 | 225 | 7.0 | 14.0 | 0.00 | 0.00 | 0.00 | 21 | 1004.9 |
| 20260503234017 | 69 | 225 | 12.0 | 17.0 | 0.00 | 0.00 | 0.00 | 22 | 1005.0 |
| 20260503233537 | 69 | 225 | 13.0 | 19.0 | 0.00 | 0.00 | 0.00 | 21 | 1005.0 |
| 20260503233017 | 69 | 202 | 11.0 | 17.0 | 0.00 | 0.00 | 0.00 | 20 | 1005.0 |
| 20260503232537 | 69 | 202 | 9.0 | 15.0 | 0.00 | 0.00 | 0.00 | 19 | 1004.8 |
| 20260503232016 | 69 | 247 | 14.0 | 29.0 | 0.00 | 0.00 | 0.00 | 19 | 1005.0 |
| 20260503231517 | 69 | 247 | 11.0 | 18.0 | 0.00 | 0.00 | 0.00 | 19 | 1004.8 |
| 20260503231017 | 69 | 225 | 6.0 | 11.0 | 0.00 | 0.00 | 0.00 | 20 | 1004.8 |
| 20260503230517 | 70 | 0 | 11.0 | 33.0 | 0.00 | 0.00 | 0.00 | 19 | 1004.8 |